Other Public Products
Issued by NWS Grand Forks, ND

Home | Current Version | Previous Version | Text Only | Print | Product List | Glossary Off
Versions: 1 2 3 4 5 6 7 8 9 10 11 12 13 14 15 16 17 18 19 20 21 22 23 24 25 26 27 28 29 30 31 32 33 34 35 36 37 38 39 40 41 42 43 44 45 46 47 48 49 50

000
FPUS83 KFGF 200210
OPUFGF
PRAIRIE TO PINES WEATHER ROUNDUP
NATIONAL WEATHER SERVICE EASTERN NORTH DAKOTA/GRAND FORKS ND
900 PM CDT THU OCT 19 2017

 **SATELLITE DATA USED TO AUGMENT SKY COVER AT AUTOMATED STATIONS**
 *****  WEATHER ACROSS EASTERN NORTH DAKOTA  *****

CITY           SKY/WX    TMP DP  RH WIND       PRES   REMARKS
GRAND FORKS    FAIR      57  41  55 S8        29.70S
GRAND FORKS AF FAIR      58  40  51 S9        29.70S
GRAND CITY NWS NOT AVBL
BUXTON         NOT AVBL
DEVILS LAKE    FAIR      58  40  51 S7        29.71R
FARGO          FAIR      62  43  49 SE7       29.76S
WAHPETON ARPT  NOT AVBL
$$

 *****  WEATHER ACROSS CENTRAL AND WESTERN NORTH DAKOTA  *****

CITY           SKY/WX    TMP DP  RH WIND       PRES   REMARKS
JAMESTOWN      FAIR      54  41  61 S8        29.73S
BISMARCK       FAIR      59  40  49 SE7       29.70S
MINOT          FAIR      59  34  39 SE5       29.64S
MINOT AFB      FAIR      53  33  47 SW10      29.62S
GARRISON         N/A     56  38  50 SE5       29.66S
WILLISTON      FAIR      47  35  63 CALM      29.61S
DICKINSON      FAIR      51  31  46 S8        29.66F
HETTINGER      FAIR      57  25  29 SE6       29.71F
$$

 *****  OTHER OBSERVATIONS NORTHEAST NORTH DAKOTA  *****

CITY           SKY/WX    TMP DP  RH WIND       PRES   REMARKS
WALHALLA       FAIR     N/A N/A N/A SE5       29.67S
LANGDON        FAIR      55  36  47 S14       29.70S
CAVALIER       FAIR      54  39  58 S9        29.68S
GRAFTON        FAIR      48  37  66 S9        29.71F
CANDO          FAIR      46  36  66 SE7       29.70S
FORT TOTTEN      N/A     60  36  40 S7        29.95S
ROLLA          FAIR      52  30  43 S12       29.68S
RUGBY            N/A     57  36  44 S10       29.66S
 ***** THE ABOVE OBSERVATIONS ARE NON NWS ARE NOT QUALITY
        CONTROLLED AND MAY MIS-REPORT RAIN FOR SNOW...
$$

 *****  OTHER OBSERVATIONS SOUTHEAST NORTH DAKOTA *****

CITY           SKY/WX    TMP DP  RH WIND       PRES   REMARKS
COOPERSTOWN    FAIR      52  41  66 S12       29.73S
VALLEY CITY    FAIR      52  41  66 S7        29.75F
OAKES          NOT AVBL
GWINNER        CLEAR     50  43  76 CALM      29.76F
SHEYENNE NWR     N/A     53  44  71 S6        29.95S
BUFFALO        NOT AVBL
WYNDMERE       NOT AVBL
 ***** THE ABOVE OBSERVATIONS ARE NON NWS ARE NOT QUALITY
       CONTROLLED AND MAY MIS-REPORT RAIN FOR SNOW...
$$

  *****  WEATHER ACROSS NORTHERN MINNESOTA  *****

CITY           SKY/WX    TMP DP  RH WIND       PRES   REMARKS
FLAG ISLAND    FAIR      52  46  82 S7        29.72S
WARROAD        FAIR      55  43  62 CALM      29.74S
ROSEAU         FAIR      52  43  71 S8        29.73S
HALLOCK        FAIR      52  34  50 S10       29.70S
THF RVR FALLS  FAIR      56  40  55 S8        29.75F
HALSTAD        NOT AVBL
FOSSTON        FAIR      57  39  51 S12       29.78S
BAUDETTE       FAIR      55  39  54 S8        29.75F
WASKISH        FAIR      59  37  44 CALM      29.79S
CROOKSTON      FAIR      57  39  51 S12       29.74S
$$
  *****  WEATHER ACROSS CENTRAL AND WEST MINNESOTA  *****

CITY           SKY/WX    TMP DP  RH WIND       PRES   REMARKS
BEMIDJI        FAIR      59  38  46 S7        29.80S
PARK RAPIDS    FAIR      56  41  57 S9        29.83S
WADENA         FAIR      54  41  62 SE6       29.84S
DETROIT LAKES  FAIR      59  43  55 SE7       29.82S
MOORHEAD       FAIR      57  45  62 SE7       29.78S
FERGUS FALLS   FAIR      57  46  67 S9        29.82S
ELBOW LAKE     FAIR      57  46  67 E6        29.83S
MORRIS MN      FAIR      61  46  59 S8        29.82F
STAPLES        FAIR      57  39  51 SE6       29.86S
WHEATON        FAIR      64  46  52 SE12G17   29.81F
$$
  *****  WEATHER ELSEWHERE ACROSS MINNESOTA  *****

CITY           SKY/WX    TMP DP  RH WIND       PRES   REMARKS
DULUTH         FAIR      60  35  39 SW14      29.91S
INTRNTL FALLS  FAIR      54  35  48 VRB3      29.80S
ELY            FAIR      57  30  35 S7        29.88F
CLOQUET        FAIR      57  32  38 S5        29.91S
BRAINERD       FAIR      57  38  48 S8        29.88S
HIBBING        FAIR      43  34  70 SE3       29.88S
ALEXANDRIA     FAIR      61  44  53 S13       29.86S
SAINT CLOUD    FAIR      55  41  59 SE8       29.89F
MINNEAPOLIS    FAIR      62  39  42 S8        29.94S
$$

  *****  WEATHER ACROSS SOUTH DAKOTA  *****

CITY           SKY/WX    TMP DP  RH WIND       PRES   REMARKS
SIOUX FALLS    FAIR      67  52  58 S17       29.88F
BROOKINGS      FAIR      63  49  60 S15       29.86S
WATERTOWN      FAIR      58  50  75 S9        29.83S
HURON          FAIR      63  49  60 S15       29.79S
SISSETON         N/A     58  49  72 SE7       29.78S
ABERDEEN       FAIR      55  46  71 SE9       29.76S
MITCHELL       FAIR      65  49  56 S13       29.82S
PIERRE         FAIR      64  43  46 SE9       29.71S
MOBRIDGE       FAIR      61  41  47 E10       29.69F
RAPID CITY     FAIR      53  23  31 CALM      29.73F
$$

  *****  SOME WEATHER IN NEARBY STATES *****

CITY           SKY/WX    TMP DP  RH WIND       PRES   REMARKS
GLASGOW MT     FAIR      55  30  38 E12       29.54F
GREAT FALLS MT FAIR      57  22  25 S3        29.51F
CHEYENNE WY    FAIR      54  27  35 W6        29.95F
SCOTTSBLUFF NE FAIR      55  32  41 E7        29.83S
OMAHA NE       FAIR      68  51  54 S10       29.97S
DES MOINES IA  FAIR      64  53  67 SE9       30.02F
DAVENPORT IA   FAIR      60  51  72 SE6       30.12F
CHICAGO IL     FAIR      55  33  43 SE8       30.16S
EAU CLAIRE WI  FAIR      56  36  47 S7        29.99F
LA CROSSE WI   FAIR      59  40  49 S7        30.03S
$$

  *****  SOME NATIONAL WEATHER *****

CITY           SKY/WX    TMP DP  RH WIND       PRES   REMARKS
LA GUARDIA NY  FAIR      66  46  48 SW9       30.09R
RALEIGH NC     FAIR      53  50  89 CALM      30.23R
ATLANTA GA     FAIR      62  46  55 CALM      30.25S
NEW ORLEANS LA FAIR      73  69  87 E10       30.14S
OKLAHOMA CITY  MOCLDY    64  50  60 S9        30.07S
ALBUQUERQUE NM CLOUDY    61  45  55 W10       30.11R
SALT LAKE CITY MOCLDY    61  35  37 SE5       29.82S
LOS ANGELES CA FAIR      66  62  87 W7        29.87R
BOISE ID       FAIR      60  14  16 SE3       29.59F
SEATTLE WA     RAIN      50  48  93 S9        29.51R FOG
$$

*** WEATHER ACROSS MANITOBA...SASKATCHEWAN AND ONTARIO ***
                ***ONTARIO***

CITY           SKY/WX    TMP DP  RH WIND       PRES   REMARKS
GERALDTON      PTCLDY    39  30  70 CALM      29.92R
THUNDER BAY    PTCLDY    41  34  75 VRB2      29.91R
SIOUX LOOKOUT  NOT AVBL
TORONTO        PTCLDY    48  34  57 W8        30.09R
BIG TROUT LK   CLOUDY    36  36 100 VRB2      29.86R
PICKLE LAKE    PTCLDY    36  27  69 SE6       29.84S
DRYDEN         CLEAR     52  30  43 S9        29.76F
KENORA         MOCLDY    54  34  47 S8        29.74S
$$
                *** MANITOBA***

CITY           SKY/WX    TMP DP  RH WIND       PRES   REMARKS
BRANDON        CLEAR     54  36  50 SE6       29.61F
DAUPHIN        CLEAR     63  37  39 SW14G20   29.55F
ISLAND LAKE    MOCLDY    41  34  75 SE14      29.76S
PILOT MOUND      N/A     48  34  57 S8          N/A
THE PAS        CLOUDY    39  34  81 SE7       29.57S
THOMPSON       MOCLDY    36  32  87 E7        29.73R
WINNIPEG       PTCLDY    59  37  44 S14       29.65S
LYNN LAKE      LGT SNOW  32  32 100 SE9       29.65R WCI  24
CHURCHILL      CLOUDY    32  28  86 E7        29.89S
GILLAM         FLURRIES  34  32  93 E6        29.82S
$$
                ***SASKATCHEWAN***

CITY           SKY/WX    TMP DP  RH WIND       PRES   REMARKS
ESTEVAN        PTCLDY    48  32  53 S9        29.59S
KINDERSLEY     CLOUDY    54  36  50 SE9       29.43S
LLOYDMINSTER   MOCLDY    46  36  66 E7        29.40S
PRINCE ALBERT  MOCLDY    41  32  70 E6        29.51R
REGINA         MOCLDY    54  28  37 SE13      29.54R
YORKTON        CLEAR     54  32  43 S9        29.54S



USA.gov is the U.S. government's official web portal to all federal, state and local government web resources and services.